Wind_Speed
78 79 79 80 81 81 82 82 83 81 77 75 76 76 77 78 78 78 76 76 75 75 74 72 71 71 70 69 67 66 66 66 65 66 66 65 65 65
82 82 83 83 84 84 84 84 85 84 81 76 77 78 79 78 78 78 76 76 75 74 74 73 72 71 70 69 68 68 67 67 66 66 66 67 67 67
86 86 86 86 87 86 86 86 85 85 83 78 78 78 79 77 76 76 75 74 73 73 73 72 71 71 70 70 70 70 69 68 67 67 67 68 68 68
87 88 87 87 87 86 85 84 83 83 82 78 76 76 77 76 75 74 73 73 72 71 70 70 70 70 70 70 69 69 69 68 67 67 68 68 69 70
87 86 84 84 82 81 81 80 79 78 78 75 72 72 72 72 72 71 71 70 69 68 68 68 69 69 68 68 67 67 68 68 68 68 68 69 70 70
83 81 79 78 76 76 75 74 73 72 71 70 68 68 68 68 68 67 67 67 66 66 66 66 66 66 65 66 66 67 67 67 68 69 69 69 70 71
75 73 71 71 70 69 68 67 67 66 65 64 62 62 62 63 63 64 65 65 64 64 63 63 64 64 65 66 66 66 67 67 68 69 69 70 71 72
65 64 63 62 62 62 61 61 60 59 58 58 57 57 57 58 59 60 61 62 62 62 63 63 64 64 64 65 65 66 66 67 67 68 69 71 72 72
58 57 57 56 56 55 55 54 54 53 53 53 52 51 52 54 56 56 57 58 58 60 61 61 62 62 62 62 63 64 65 65 66 67 69 70 71 72
53 52 51 49 49 49 49 48 48 48 48 48 48 47 48 50 52 53 55 55 56 57 58 58 58 59 60 61 62 63 63 64 65 67 68 69 71 72
47 47 46 44 44 44 43 43 43 43 44 45 45 45 45 47 48 50 51 52 52 53 54 54 55 58 59 59 60 61 62 63 64 66 67 69 70 72
43 43 42 41 41 40 40 39 39 40 41 42 43 44 44 44 46 47 48 50 50 51 52 53 54 56 56 56 57 59 60 61 63 64 65 67 68 70
40 39 39 39 39 38 38 38 38 38 39 40 41 42 43 43 44 45 46 47 47 48 49 51 51 53 53 53 54 55 57 59 60 62 63 65 67 69
39 38 38 38 38 37 37 37 37 37 37 38 39 39 40 41 42 43 44 44 45 46 47 48 49 51 52 52 52 53 55 57 59 60 61 63 64 66
39 38 37 37 36 36 35 35 36 36 36 36 37 38 39 40 41 42 42 43 45 45 46 48 49 50 51 52 52 52 53 54 56 58 59 60 61 62
38 37 36 35 34 34 34 34 35 35 36 36 36 37 38 39 40 40 41 42 43 44 46 47 49 50 50 51 50 49 50 51 52 54 56 56 57 58
35 34 33 32 32 33 33 33 34 34 35 36 36 36 37 38 39 40 41 42 42 43 44 46 47 48 48 48 47 47 48 49 50 51 53 53 52 54
34 32 31 31 31 31 32 33 33 34 34 35 35 36 36 37 38 39 40 40 41 41 42 44 45 46 46 46 46 46 46 46 47 49 50 50 48 49
32 31 31 31 31 31 32 32 32 33 34 34 34 35 35 36 36 37 38 38 39 39 40 42 43 45 44 43 41 44 45 45 46 46 47 48 45 42
32 31 31 30 30 30 31 31 31 32 32 32 32 33 33 34 35 36 36 37 37 38 38 40 42 43 43 41 38 38 42 43 43 43 44 43 40 38
31 30 30 30 30 30 30 30 30 30 30 31 31 32 32 32 33 34 35 35 36 36 35 36 38 39 39 37 35 33 36 40 41 40 39 37 34 33
30 30 30 30 29 29 29 28 28 28 29 30 30 30 30 31 31 32 32 32 32 32 33 33 35 36 37 36 34 33 34 37 39 38 37 35 33 30
29 29 29 29 28 28 27 27 26 27 27 27 27 28 28 29 29 29 29 30 30 31 32 32 33 35 36 36 35 34 34 35 35 35 34 33 30 27
Wind_Direction
285 284 283 282 281 280 279 279 278 277 276 275 275 274 273 273 272 272 272 271 271 271 271 271 271 271 270 270 269 268 267 266 265 263 261 259 258 257
286 284 283 281 280 279 278 277 277 277 275 274 273 273 272 272 271 271 270 270 270 270 270 269 270 270 269 268 268 267 266 265 265 263 261 259 258 257
286 284 283 281 280 278 277 277 276 276 275 273 272 272 271 271 270 270 269 269 269 269 269 268 268 268 268 268 267 267 266 265 264 263 261 259 259 257
286 284 283 281 280 278 277 277 276 276 275 274 272 271 271 270 270 270 269 269 269 269 268 268 267 267 268 268 267 266 266 265 264 262 261 260 259 258
287 285 283 281 280 278 277 276 276 275 274 274 272 270 270 269 269 269 269 268 268 268 267 267 267 268 268 268 267 266 265 264 263 263 262 260 259 258
287 286 284 283 281 280 278 278 277 275 275 275 273 271 270 269 268 268 267 267 267 267 267 267 267 268 268 267 267 266 266 265 264 263 262 261 261 260
289 288 286 285 283 282 280 279 278 277 275 274 273 271 270 269 268 266 266 266 266 267 267 267 268 268 268 268 267 267 266 265 265 264 263 263 263 262
291 289 287 286 284 283 282 280 278 277 276 275 274 273 271 269 267 266 267 267 268 268 268 268 268 269 269 268 268 267 267 266 266 265 265 264 264 264
294 291 289 287 285 283 282 280 279 278 277 275 273 272 271 269 268 268 268 268 269 269 269 269 269 269 268 268 268 268 268 268 267 267 266 266 266 265
296 294 292 289 286 284 283 281 280 279 278 276 274 272 271 271 271 271 270 270 270 270 270 270 269 268 268 268 269 270 269 269 269 268 268 268 267 267
298 296 294 292 289 287 286 283 281 279 278 277 276 275 273 273 273 272 272 272 272 271 271 270 270 269 269 270 270 270 270 270 270 269 269 269 269 269
300 298 295 293 291 290 288 286 284 281 279 278 278 278 277 276 274 273 272 272 273 273 273 272 271 270 271 271 271 271 271 271 271 270 271 271 270 270
302 299 296 295 293 291 290 288 286 284 282 281 280 280 278 277 276 275 275 275 275 275 274 274 273 272 271 271 271 272 272 272 271 272 272 272 271 272
304 301 298 296 294 292 290 289 287 286 285 284 283 281 278 277 277 278 278 278 277 276 275 275 274 273 273 272 272 272 272 271 271 271 271 271 272 273
305 303 301 298 296 293 291 290 289 288 288 287 285 282 280 279 279 279 279 279 279 278 277 276 276 275 275 275 274 273 272 271 271 271 271 272 272 273
305 304 302 299 297 295 293 291 290 289 288 288 286 284 282 280 280 280 280 280 280 280 279 278 278 277 277 277 276 275 274 273 272 272 272 273 274 274
308 306 303 300 298 296 294 292 291 290 290 289 288 286 284 283 282 282 282 282 282 281 280 280 279 279 279 279 279 278 277 276 275 275 276 276 276 276
311 309 306 303 301 298 295 294 292 291 291 290 289 288 286 284 283 283 283 283 283 282 281 281 281 281 282 282 283 282 280 280 279 279 280 280 279 278
312 310 308 306 304 301 298 296 294 293 292 291 290 289 288 287 285 285 284 284 284 284 283 283 283 283 284 284 283 284 283 282 282 283 284 284 283 278
312 311 310 308 306 304 302 299 297 296 295 294 293 292 290 289 288 287 287 287 287 286 286 285 285 286 287 286 285 284 284 285 285 286 286 285 282 278
313 312 311 309 308 307 305 302 300 298 297 297 296 295 293 292 291 290 290 290 289 289 288 288 288 289 290 290 289 286 285 287 289 290 288 284 280 278
313 313 312 310 309 308 307 305 303 301 301 301 299 298 296 295 294 294 293 293 292 292 292 292 292 292 292 293 291 288 287 288 290 291 289 285 281 277
315 314 313 312 311 310 308 307 306 306 306 305 303 302 301 300 299 297 296 296 296 295 295 295 294 294 294 294 293 291 290 289 288 288 288 285 281 276
Height
5615 5609 5603 5598 5591 5586 5581 5577 5573 5575 5581 5583 5577 5574 5569 5567 5565 5564 5565 5565 5565 5566 5567 5568 5568 5568 5569 5569 5570 5571 5572 5572 5574 5576 5578 5581 5584 5587
5592 5585 5579 5573 5567 5561 5556 5552 5547 5546 5551 5561 5555 5550 5545 5544 5542 5542 5542 5542 5543 5544 5545 5546 5547 5547 5548 5549 5550 5551 5551 5552 5554 5556 5558 5561 5564 5567
5566 5558 5553 5546 5540 5536 5530 5526 5523 5519 5521 5533 5529 5526 5522 5520 5519 5518 5519 5520 5521 5522 5523 5524 5525 5526 5527 5528 5529 5530 5531 5532 5534 5535 5537 5541 5543 5547
5539 5531 5525 5518 5513 5508 5503 5500 5498 5495 5493 5501 5505 5501 5499 5497 5496 5496 5497 5498 5499 5499 5500 5502 5503 5504 5505 5506 5507 5508 5510 5511 5513 5515 5518 5520 5523 5525
5510 5503 5497 5490 5486 5481 5477 5474 5473 5470 5469 5472 5478 5477 5475 5474 5473 5474 5474 5475 5477 5478 5478 5480 5482 5483 5484 5485 5486 5488 5489 5490 5492 5494 5496 5498 5501 5504
5483 5476 5470 5464 5460 5456 5453 5451 5449 5447 5447 5448 5452 5453 5453 5452 5451 5453 5453 5453 5455 5456 5458 5459 5461 5462 5463 5464 5466 5467 5468 5469 5470 5472 5474 5477 5479 5482
5458 5452 5446 5440 5436 5433 5431 5429 5427 5426 5425 5426 5429 5430 5431 5431 5432 5431 5432 5433 5435 5436 5438 5439 5440 5442 5443 5443 5444 5445 5446 5447 5449 5450 5452 5454 5457 5459
5437 5431 5426 5421 5416 5413 5410 5409 5408 5407 5407 5407 5408 5410 5410 5410 5410 5411 5412 5414 5417 5418 5417 5419 5420 5422 5422 5422 5422 5423 5424 5425 5426 5428 5429 5431 5433 5435
5417 5412 5408 5403 5399 5396 5393 5391 5390 5389 5389 5389 5390 5392 5391 5391 5391 5393 5394 5395 5397 5397 5398 5400 5400 5401 5401 5401 5401 5402 5402 5403 5404 5405 5406 5408 5409 5411
5400 5395 5391 5387 5383 5380 5378 5377 5375 5374 5372 5372 5374 5376 5375 5374 5374 5375 5376 5377 5379 5378 5379 5380 5380 5380 5380 5381 5381 5381 5381 5381 5382 5382 5383 5384 5385 5386
5386 5381 5376 5373 5369 5366 5364 5363 5362 5360 5358 5358 5359 5359 5359 5359 5359 5359 5359 5360 5361 5360 5360 5361 5361 5360 5361 5362 5361 5360 5359 5359 5359 5359 5360 5360 5360 5360
5374 5369 5364 5360 5357 5353 5351 5350 5349 5348 5346 5345 5345 5344 5344 5344 5343 5343 5343 5343 5344 5344 5342 5342 5342 5340 5342 5343 5341 5340 5339 5338 5338 5337 5337 5336 5335 5335
5362 5357 5353 5349 5345 5342 5339 5338 5337 5335 5334 5333 5332 5331 5330 5329 5328 5328 5328 5328 5328 5327 5325 5324 5323 5322 5323 5325 5324 5322 5320 5318 5317 5316 5315 5314 5312 5311
5350 5346 5342 5338 5334 5331 5328 5326 5324 5323 5322 5321 5319 5318 5316 5315 5314 5313 5313 5312 5312 5311 5309 5307 5307 5306 5305 5306 5307 5305 5302 5299 5297 5296 5295 5293 5291 5289
5339 5334 5330 5327 5323 5320 5318 5315 5313 5311 5310 5309 5307 5305 5303 5302 5301 5300 5298 5297 5296 5294 5292 5291 5289 5288 5287 5288 5288 5287 5284 5282 5278 5276 5275 5273 5272 5269
5328 5324 5320 5316 5312 5309 5307 5305 5302 5300 5299 5297 5295 5292 5290 5289 5288 5286 5285 5283 5281 5279 5276 5274 5272 5271 5270 5269 5269 5268 5265 5263 5261 5257 5255 5254 5252 5249
5319 5314 5310 5306 5303 5300 5297 5294 5292 5290 5288 5285 5283 5281 5278 5276 5274 5273 5271 5269 5267 5264 5261 5258 5256 5254 5253 5252 5251 5249 5246 5244 5241 5238 5235 5234 5233 5229
5310 5305 5302 5298 5294 5291 5287 5285 5282 5280 5277 5274 5272 5269 5267 5265 5262 5260 5258 5256 5253 5251 5248 5244 5241 5239 5238 5236 5234 5231 5228 5225 5222 5219 5215 5214 5214 5211
5301 5297 5293 5289 5285 5282 5278 5275 5272 5269 5266 5264 5261 5258 5256 5253 5251 5248 5245 5243 5240 5238 5234 5231 5227 5224 5223 5222 5220 5214 5211 5208 5205 5202 5198 5195 5194 5193
5293 5289 5285 5281 5277 5273 5269 5266 5263 5260 5256 5254 5251 5248 5245 5242 5239 5236 5233 5231 5228 5225 5222 5218 5214 5211 5208 5207 5206 5202 5195 5191 5188 5186 5183 5179 5177 5175
5286 5281 5277 5273 5269 5265 5261 5257 5254 5251 5247 5244 5241 5238 5235 5232 5229 5225 5222 5219 5216 5213 5210 5206 5202 5198 5195 5192 5191 5189 5183 5177 5173 5170 5168 5164 5163 5161
5278 5274 5269 5265 5261 5257 5253 5249 5246 5242 5239 5236 5232 5229 5225 5222 5219 5215 5212 5208 5205 5202 5199 5195 5191 5187 5183 5180 5177 5175 5172 5167 5161 5157 5153 5150 5147 5147
5271 5267 5262 5258 5254 5250 5246 5242 5238 5235 5231 5227 5224 5220 5217 5213 5210 5206 5202 5199 5195 5192 5188 5185 5180 5176 5172 5167 5164 5162 5159 5154 5150 5146 5143 5138 5135 5134